Погода Унский Маяк

Погода Унский Маяк : погода сейчас, прогноз погоды и архив. Всё, что Вы хотите узнать о погоде Унский Маяк!

Поиск расширенной информации на нашем сайте:

Другие новости

Новости СМИ2

Главная страница сайта

Новости сайта

03.07.2017

Напоминаем, что на нашем специализированном сайте Метеоцентр.Азия вы можете получить высокодетализированные автоматические прогнозы погоды по пунктам России, СНГ и мира в авиационном формате (включающие направление и скорость ветра, видимость, явления погоды, количество и форму облачности, нижнюю и верхнюю границу облачности).


Погода Унский Маяк - сегодня

Время (UTC), дата Ветер
(°,м/с) 
Видим.   Явления Облачность Т
(°С)
Тd
(°С)
f(%) Тe
(°С)
Pmin
(гПа)
dP
(гПа)
Po
(мм)
O2
(г/м3)
Тmin Tmax R s Состояние
почвы
09 08.06.18 010 (С) 20000 м    8/3 300 м средняя, верхняя 
[Cu Sc|Ac lent|Ci fib]
+7.9 +4.2 77 +6  1008.3  1.7  756  295           
09 09.06.18 360 (С) 5{10}  20000 м    8/8 300 м 
[Cu Sc]
+7.5 +2.5 71 +6  1015.3  1.3  761  298           
06 10.06.18 320 (СЗ) 20000 м    9/8 600 м средняя 
[Sc|Ac lent]
+8.6 +3.8 72 +9  1011.5  -0.5  758  296           
09 10.06.18 110 (В) 20000 м  {ливн. осадки}  6/3 300 м средняя 
[Cu Sc|Ac lent]
+9.7 +2.7 62 +9  1011.1  -0.4  758  295           
06 11.06.18 230 (ЮЗ) 4{11}  20000 м    9/3 600 м средняя, верхняя 
[Sc|Ac lent|Cc]
+10.3 +2.6 59 +9  1005.4  -1.4  754  292           
09 11.06.18 110 (В) 4{11}  20000 м    8/1 600 м средняя, верхняя 
[Cu hum|Ac lent|Cc]
+14.4 +3.1 47 +14  1003.9  -1.5  753  288           
09 12.06.18 260 (З) 4{11}  20000 м    10/10 600 м 
[Sc]
+8.4 +5.5 82 +7  991.1  0.5  743  290           
06 14.06.18 050 (СВ) 20000 м    4/1 600 м средняя, верхняя 
[Sc|Ac lent|Ci fib]
+7.4 +1.2 65 +7  1015.2    761  298           
09 14.06.18 360 (С) 20000 м    4/1 300 м средняя, верхняя 
[Cu Sc|Ac lent|Ci fib]
+7.9 -0.9 54 +8  1016.5  1.3  762  298           
15 14.06.18 040 (СВ) 20000 м    3/0 средняя 
[Ac lent]
+9.3 -1.6 46 +10  1017.3  0.1  763  297    +10       
06 15.06.18 150 (ЮВ) 20000 м    6/1 600 м средняя, верхняя 
[Cu hum|Ac lent|Cc]
+11.9 -0.7 42 +12  1017.6  -0.1  763  295           
09 15.06.18 110 (В) 20000 м    3/1 600 м средняя, верхняя 
[Cu hum|Ac lent|Cc]
+12.1 +4.9 61 +11  1017.2  -0.4  763  293           
06 16.06.18 200 (Ю) 20000 м    6/4 600 м средняя 
[Sc|Ac lent]
+19.2 +8.7 51 +20  1015.2  -0.2  761  285           
09 16.06.18 220 (ЮЗ) 20000 м    4/3 300 м средняя 
[Cu Sc|Ac lent]
+23.8 +9.8 41 +24  1015.2  761  280           
06 17.06.18 020 (С) 20000 м    4/0 средняя, верхняя 
[Ac lent|Ci fib]
+21.5 +10.8 50 +23  1017.5  0.4  763  283           
09 17.06.18 340 (С) 20000 м    4/1 600 м средняя, верхняя 
[Cu hum|Ac lent|Ci fib]
+18.4 +11.7 65 +22  1018.3  0.8  763  286           
06 18.06.18 090 (В) 20000 м    6/4 600 м верхняя 
[Sc|Ci fib]
+18.3 +10.1 59 +20  1017.2  -0.3  763  286           
09 18.06.18 100 (В) 20000 м    6/4 600 м средняя, верхняя 
[Sc|Ac lent|Ci fib]
+17.5 +12.9 74 +23  1015.7  -1.5  761  286           
06 19.06.18 220 (ЮЗ) 20000 м    10/5 600 м средняя 
[Sc|Ac As]
+19.1 +14.1 73 +27  1004.4  -1.2  753  281           
09 19.06.18 160 (Ю) 20000 м    9/3 600 м средняя, верхняя 
[Sc|Ac lent|Ci fib]
+19.6 +12.5 64 +26  1002.3  -2.1  751  280           
06 20.06.18 230 (ЮЗ) 20000 м    9/6 300 м средняя, верхняя 
[Cu Sc|Ac lent|Ci fib]
+15.7 +10.8 73 +18  988.2  -1  741  280           
09 20.06.18 220 (ЮЗ) 20000 м    9/6 600 м средняя 
[Sc|Ac lent]
+14.8 +11.1 78 +18  988.4  0.2  741  281           
06 21.06.18 300 (СЗ) 6{10}  20000 м    9/9 600 м 
[Sc]
+12.4 +8.6 78 +11  1096  747  286           
06 22.06.18 200 (Ю) 20000 м    6/0 средняя, верхняя 
[Ac lent|Ci fib]
+19.9 +5.3 38 +21  1005.4  754  282           
09 22.06.18 100 (В) 20000 м    8/3 600 м средняя 
[Sc|Ac lent]
+16.3 +11.1 71 +19  1004.8  -0.6  753  284           
Время (UTC), дата Ветер
(°,м/с) 
Видим.   Явления Облачность Т
(°С)
Тd
(°С)
f(%) Тe
(°С)
Pmin
(гПа)
dP
(гПа)
Po
(мм)
O2
(г/м3)
Тmin Tmax R s Состояние
почвы

Для получения пояснительной информации подведите курсор к названию столбца.

ПОГОДА Унский Маяк - архив

Всё, что Вы хотите узнать о погоде Унский Маяк - удобно и подробно!

Выберите нужную дату (начиная с 1 января 2015* года) и нажмите кнопку "Найти".
Будут отображены архивные сводки погоды по пункту Унский Маяк, начиная с указанной даты.


Отображать данные в формате CSV (для использования в таблицах Excel)


Внимание! Наш архив погоды предназначен исключительно для личного некоммерческого использования в познавательных целях. Если Вам необходимы официальные справки о состоянии погоды (для производственных, юридических, коммерческих и т.п. целей), обращайтесь в органы Росгидромета.

*Примечание: данная дата относится к архиву по метеостанциям СССР (Россия, СНГ, Балтия).
Архив по метеостанциям Зарубежной Европы и Азии (кроме Китая) хранится 10 дней, по другим регионам земного шара (Китай, Африка, Америка, Австралия, Океания) - 1 день.

Унский Маяк - район местоположения метеостанции


Название, широта, долгота, высота метеостанции:
Унский Маяк 64.8°ш. 38.4°д. 5 м над ур. моря [Российская Федерация]

Дополнительная информация

В oтличие oт бoльшинства пoгoдных сайтoв мы публикуем пoдрoбную метеoинфoрмацию в детальнoм прoфессиoнальнoм фoрмате.

Характеристики температуры и влажнoсти вoздуха измеряются на высoте 2 м в тени вдали oт зданий и деревьев.
Скoрoсть ветра измеряется на высoте 10 м (на урoвне рoста челoвека скoрoсть ветра ниже в 1.5-2 раза). Если метеoстанция нахoдится в гoрoде или в лесу, тo скoрoсть ветра занижена на 2-4 м/с пo сравнению с oткрытым местoм. Скoрoсть ветра над акватoриями крупных рек и oзёр, а также на вершинах хoлмoв на 2-5 м/с выше, чем в oбычных услoвиях.
Атмoсфернoе давление в разных тoчках местнoсти мoжет значительнo oтличаться oт давления на метеoстанции, в зависимoсти oт услoвий рельефа (при пoдъёме на 10 м давление пoнижается примернo на 1 мм рт.ст.).